INMARSAT 3-F3

Last updated on Aug. 5, 2020, 5:33 a.m. UTC

1 24674U 96070A   20217.82879972  .00000016  00000-0  00000+0 0  9995
2 24674   5.7006  65.9644 0005196  65.0937 299.2348  1.00270880 86487
UTC
Height (km)
Latitude
Longitude
Inclination
Orbital Period
UTC large
Height (km)
Speed (km/s)
/
Latitude / Longitude
Inclination (degrees)
Orbital Period (minutes)
Azimuth
Elevation
Range (km)
Doppler Factor
iOS Compass Heading
iOS Angle

Next 30 passes for location: Hong Kong

Rise time Rise Azimuth (degrees) Set time Set Azimuth (degrees) Duration Max altitude (degrees)

No matching passes for this satellites